User: anonymous   Login
Location: Unspecified
(0.0000°N, 0.0000°E)
Time: 06:17:17
(UTC+00:00)
Language:

PAYLOAD H - Orbit

View from above orbital plane
View from above orbital plane
View from above satellite
View from above satellite

Ground track
Ground track

The orbit data is extracted from the following two-line orbital elements,

1 27847U 03031H   18116.56502785 +.00000041 +00000-0 +38271-4 0  9990
2 27847 098.6842 124.5517 0010200 130.7017 229.5048 14.22106173768956
Epoch (UTC): 26 April 2018 13:33:38
Eccentricity: 0.0010200
inclination: 98.6842°
perigee height: 811 km
apogee height: 825 km
right ascension of ascending node: 124.5517°
argument of perigee: 130.7017°
revolutions per day: 14.22106173
mean anomaly at epoch: 229.5048°
orbit number at epoch: 76895

The dashed part of the orbit path shows where the satellite is in the earth's shadow,  

DLR